www.pogodaiklimat.ru

Погода и климат >> Архив погоды >> Литва >> Нида


ПОГОДА в Ниде

  • Прогноз погоды в Ниде
  • Монитор погоды в Ниде

АРХИВ ПОГОДЫ в Ниде

Время (UTC), дата Ветер
(напр.,м/с)
 
Видим.   Явления Облачность Т
(С)
Тd
(С)
f
(%)
Тe
(С)
Тes
(С)
Комфортность P
(гПа)
Po
(гПа)
Тmin
(С)
Tmax
(С)
R
(мм)
R24
(мм)
S
(см)
15 9.07 СЗ 5-9
{11}
20 км слаб. ливневой дождь 9/9 330 м
[Cb cap]
+15.9 +13.8 87 +15 +15 1007.4 1007.0
18 9.07 С 5-11
{11}
20 км в посл. час ливневой дождь 9/9 600 м
[Cb cap Ac cuf Ci sp]
+15.0 +12.7 86 +14 +14 1007.5 1007.1 +18.1 4
21 9.07 СЗ 5-9
{12}
20 км в посл. час дождь 9/9 300 м
[]
+14.0 +12.8 92 +12 +12 1008.2 1007.9 4
00 10.07 СЗ 4-9
{9}
20 км 9/9 300 м
[]
+14.3 +12.4 88 +13 +13 1008.1 1007.8 2
03 10.07 СЗ 4-7
{11}
20 км 9/9 600 м
[]
+13.6 +12.0 90 +12 +12 1007.9 1007.6 1
06 10.07 С 4-7
{11}
20 км в посл. час ливневой дождь 10/10 300 м
[Cb cap]
+13.9 +11.7 87 +12 +12 1008.0 1007.6 +13.1 6
09 10.07 С 4-8
{11}
13 км слаб. ливневой дождь 10/10 600 м
[Cb cap]
+14.0 +11.8 87 +13 +13 1008.6 1008.2
12 10.07 З 3-7
{9}
19 км слаб. ливневой дождь 10/10 360 м
[Cb cap]
+14.9 +12.8 87 +14 +14 1008.8 1008.5
15 10.07 С 4-8
{10}
20 км {ливн. осадки} 9/9 500 м
[Cb cap]
+16.0 +12.0 77 +15 +16 1009.0 1008.6
18 10.07 С 4-8
{10}
20 км {ливн. осадки} 10/8 600 м
[Cb cap Ac trans]
+15.6 +11.3 76 +15 +15 1009.4 1009.0 +16.1 0.0
21 10.07 С 4-8
{9}
20 км 9/0 2000 м
[]
+15.2 +11.0 76 +14 +14 1009.9 1009.6
00 11.07 С 2-4
{8}
20 км 6/6 300 м
[]
+14.4 +11.5 83 +14 +14 1010.0 1009.7
03 11.07 штиль 0-2
{5}
20 км 8/8 300 м
[]
+13.5 +11.5 88 +13 +13 1010.0 1009.7
06 11.07 СЗ 3-5
{6}
20 км 3/1 600 м
[Cu med, cong Ac trans Ci fib]
+16.7 +11.3 70 +16 +20 1010.0 1009.6 +12.9
09 11.07 СЗ 4-7
{7}
20 км 9/1 600 м
[Cu med, cong Ac und Ci sp]
+18.0 +11.3 65 +18 +23 1010.7 1010.3
12 11.07 З 5-8
{9}
20 км 9/1 600 м
[Cu med, cong Ac trans Cc]
+18.7 +12.0 65 +19 +23 1010.2 1009.9
15 11.07 З 4-9
{9}
20 км 9/1 1000 м
[Sc diur, vesp Ac cast Cc]
+18.8 +12.3 66 +20 +22 1010.0 1009.6
18 11.07 СЗ 2-7
{9}
20 км 9/1 600 м
[Cb cap Ac cuf]
+17.7 +11.9 69 +18 +18 1009.2 1008.8 +19.7
21 11.07 С 4-7
{9}
20 км 6/0
[]
+15.5 +12.3 81 +15 +15 1009.3 1009.0
00 12.07 С 3-7
{8}
20 км 9/9 600 м
[]
+15.1 +11.3 78 +14 +14 1009.4 1009.1
03 12.07 С 3-4
{7}
20 км ясно +13.1 +10.6 85 +12 +12 1009.7 1009.4
06 12.07 СВ 3-5
{5}
20 км 3/1 600 м
[Cu med, cong Ci fib]
+16.6 +11.8 73 +16 +20 1009.9 1009.5 +13.1 0.0
09 12.07 СЗ 4-6
{6}
20 км 5/3 600 м
[Cb cap Ci sp]
+17.4 +11.3 67 +17 +23 1010.7 1010.3
12 12.07 З 3-6
{6}
20 км 5/3 300 м
[Cb cap Ci sp]
+19.2 +12.0 63 +21 +28 комфорт 1010.7 1010.4
15 12.07 СЗ 4-8
{8}
20 км 3/1 300 м
[Cb cap Ci fib]
+18.5 +11.9 65 +19 +22 1010.3 1009.9
18 12.07 С 3-5
{8}
20 км 3/1 600 м
[Cu med, cong Ci sp]
+17.3 +12.4 73 +17 +17 1010.2 1009.8 +19.4
21 12.07 -5
{5}
20 км ясно +16.1 +11.0 72 1010.3 1010.0
00 13.07 СВ 3-4
{5}
20 км 4/0
[]
+15.4 +12.2 81 +15 +15 1010.2 1009.9
03 13.07 СВ 3-4
{4}
20 км 8/0
[]
+14.8 +12.2 84 +14 +14 1010.1 1009.8
06 13.07 В 4-5
{6}
20 км 8/1 1000 м
[Sc diur, vesp Ac trans Ci sp]
+15.9 +9.2 64 +15 +17 1010.5 1010.1 +13.8
09 13.07 В 2-3
{5}
20 км 6/1 1000 м
[Sc diur, vesp Ac trans Ci sp]
+18.7 +9.5 55 +20 +29 1010.8 1010.4
12 13.07 С 5-8
{9}
20 км 4/1 600 м
[Cb calv Ac trans Ci sp]
+19.2 +10.6 57 +20 +25 1011.0 1010.7
15 13.07 С 5-9
{10}
20 км 6/1 600 м
[Cb calv Ac cuf Cc]
+18.7 +9.5 55 +19 +21 1010.9 1010.5
18 13.07 С 4-7
{10}
20 км 8/1 1000 м
[Cu med, cong Ac cuf Ci sp]
+16.9 +11.8 72 +16 +17 1011.2 1010.8 +20.0
21 13.07 С 5-8
{10}
20 км 9/0
[]
+16.4 +11.8 74 +15 +15 1011.8 1011.5
03 14.07 -4
{6}
20 км ясно +13.2 +9.2 77 1012.2 1011.9
09 14.07 СЗ 3-6
{8}
20 км 3/1 1000 м
[Cu med, cong Ci sp]
+18.0 +7.7 51 +18 +28 1013.3 1012.9
15 14.07 СЗ 5-9
{11}
20 км 3/1 600 м
[Cu med, cong Ci sp]
+19.0 +9.7 55 +19 +22 1013.4 1013.0
21 14.07 СЗ 1-3
{7}
20 км ясно +15.5 +12.5 82 +16 +16 1013.8 1013.5
03 15.07 С 2-3
{5}
20 км ясно +14.0 +11.2 83 +13 +14 1013.6 1013.3
09 15.07 З 3-5
{5}
20 км 8/1 600 м
[Cu med, cong Ac trans Ci sp]
+19.7 +13.4 67 +22 +28 комфорт 1014.0 1013.6

 

Местоположение метеостанции Нида (Литва): широта 55.32 долгота 21.02 высота над уровнем моря 3 м.

В архиве по умолчанию представлена погода в Ниде за последнюю неделю. Архивные данные за месяц целиком и за предыдущие месяцы, начиная с января 2011 года, Вы можете получить, выбрав интересующий диапазон дат из раскрывающегося списка и нажав кнопку "Ввод!".


*Определитесь, кто Вы:
робот инопланетянин человек

Внимание! Время в таблицах - всемирное. Для получения местного времени необходимо прибавить поправку, которая равна 2 ч.

Смотрите также архив погоды в соседних городах и на ближайших метеорологических станциях:

Погода в Рыбачем (Калининградская область, Россия) (21 км)
Погода в Шилуте (Литва) (27 км)
Погода в Kлайпеде (Литва) (46 км)
Погода в Советске (Калининградская область, Россия) (64 км)
Погода в Пионерском (Калининградская область, Россия) (66 км)
Погода в Калининграде (Калининградская область, Россия) (74 км)
Погода в Рыбном Порту (Калининградская область, Россия) (78 км)
Погода в Лаукуве (Литва) (83 км)
Погода в Черняховске (Калининградская область, Россия) (91 км)
Погода в Балтийске (Калининградская область, Россия) (104 км)

Пояснения к столбцам:

Ветер - указаны скорость ветра в м/с - средняя за 10 мин, порывы в срок и между сроками (в фигурных скобках) и направление, откуда дует ветер: С - северный, СВ - северо-восточный, В - восточный, ЮВ - юго-восточный, Ю - южный, ЮЗ - юго-западный, З - западный, СЗ - северо-западный.
Видимость - горизонтальная дальность видимости в метрах или километрах. При видимости от 1 до 10 км при отсутствии осадков обычно наблюдается дымка, при ухудшении видимости до 1 км и менее - туман. В сухую погоду видимость может ухудшаться дымом, пылью или мглою.
Явления - указаны атмосферные явления, наблюдавшиеся в срок или в последний час перед сроком; фигурными скобками обозначены явления, наблюдавшиеся между сроками (за 1-3 часа до срока); квадратными скобками обозначены град или гололедные отложения с указанием их диаметра в мм.
Облачность - указаны через наклонную черту общая и нижняя облачность в баллах и высота нижней границы облаков в метрах; квадратными скобками обозначены формы облаков: Ci - перистые, Cs - перисто-слоистые, Cc - перисто-кучевые, Ac - высококучевые, As - высокослоистые, Sc - слоисто-кучевые, Ns - слоисто-дождевые, Cu - кучевые, Cb - кучево-дождевые. Подробнее классификацию облаков см. в Атласе облаков (PDF).
T - Температура воздуха - температура, измеренная на высоте 2 м над землей.
Td - Температура точки росы - температура, при понижении до которой содержащийся в воздухе водяной пар достигнет насыщения.
f - Относительная влажность воздуха - влажноcть воздуха, измеренная на высоте 2 м над землей.
Te - Эффективная температура - температура, которую ощущает одетый по сезону человек в тени. Характеристика душности погоды. При расчете учитывается влияние влажности воздуха и скорости ветра на теплоощущения человека.
Tes - Эффективная температура на солнце - температура, которую ощущает человек, с поправкой на солнечный нагрев. Характеристика знойности погоды. Зависит от высоты солнца над горизонтом, облачности и скорости ветра. Ночью, в пасмурную погоду, а также при ветре 12 м/с и более поправка равна нулю.
P - Атмосферное давление - приведенное к уровню моря атмосферное давление.
Po - Атмосферное давление - измеренное на уровне метеостанции атмосферное давление.
Tmin - Минимальная температура - минимум температуры воздуха на высоте 2 м над землей.
Tmax - Максимальная температура - максимум температуры воздуха на высоте 2 м над землей.
R - Количество осадков - Количество выпавших осадков за период времени, мм. При наведении курсора мыши на число - период времени, за который выпало указанное количество осадков.
R24 - Количество осадков - Количество выпавших осадков за 24 часа, мм.
S - Снежный покров - Высота снежного покрова, см. При наведении курсора мыши на число - состояние снежного покрова и степень покрытия местности в баллах.